YUZGU TY (RS12S)

Last updated on Tue Aug 30 2022 00:02:06 GMT+0000 (Coordinated Universal Time)

1 53313U 98067TY 22241.51963347 .00032253 00000+0 51778-3 0 9999 2 53313 51.6426 332.9040 0001261 201.1302 158.9636 15.52741471 6091
UTC large
Height (km)
Speed (km/s)
/
Latitude / Longitude
Inclination (degrees)
Orbital Period (minutes)
Azimuth
Elevation
Range (km)
Doppler Factor

Next 0 passes for location: London (51.5072 / 0.1276)

Sorry there are no passes over London.